PIA308 OPKC-OPIS

Flight info

Callsign PIA308
Flight time 1h 40m
Altitude 37000
Route BADUL B466 NH Z301 BELKO
Aircraft B772/H-SDE2E3FGHIJ5LORVWXY/LB1D1

Departure

Time 2026-04-28 12:45
Airport Jinnah International Airport (OPKC)

Arrival

Time 2026-04-28 14:25
Airport Islamabad International Airport (OPIS)
Time Latitude Longitude Altitude Speed Heading
2026-04-28 11:50 24.90241 67.16579 105 ft 0 kts 164°
2026-04-28 12:30 24.90244 67.16578 106 ft 2 kts 164°
2026-04-28 12:30 24.90260 67.16573 92 ft 2 kts 164°
2026-04-28 12:30 24.90276 67.16568 108 ft 2 kts 164°
2026-04-28 12:30 24.90291 67.16561 110 ft 2 kts 148°
2026-04-28 12:31 24.90303 67.16550 102 ft 2 kts 124°
2026-04-28 12:31 24.90310 67.16534 103 ft 2 kts 101°
2026-04-28 12:31 24.90311 67.16516 105 ft 2 kts 80°
2026-04-28 12:31 24.90307 67.16499 103 ft 0 kts 67°
2026-04-28 12:36 24.90308 67.16502 103 ft 3 kts 67°
2026-04-28 12:36 24.90326 67.16555 101 ft 9 kts 72°
2026-04-28 12:37 24.90344 67.16621 107 ft 9 kts 73°
2026-04-28 12:37 24.90368 67.16683 109 ft 9 kts 46°
2026-04-28 12:37 24.90427 67.16693 106 ft 9 kts 355°
2026-04-28 12:37 24.90479 67.16725 106 ft 9 kts 56°
2026-04-28 12:38 24.90500 67.16790 106 ft 9 kts 73°
2026-04-28 12:38 24.90516 67.16858 106 ft 9 kts 76°
2026-04-28 12:38 24.90532 67.16925 106 ft 9 kts 72°
2026-04-28 12:38 24.90551 67.16991 106 ft 9 kts 73°
2026-04-28 12:39 24.90569 67.17058 106 ft 9 kts 74°
2026-04-28 12:39 24.90586 67.17125 106 ft 9 kts 74°
2026-04-28 12:39 24.90603 67.17191 107 ft 9 kts 74°
2026-04-28 12:39 24.90620 67.17259 107 ft 9 kts 75°
2026-04-28 12:40 24.90632 67.17308 107 ft 0 kts 75°
2026-04-28 12:40 24.90633 67.17311 106 ft 3 kts 75°
2026-04-28 12:40 24.90644 67.17353 108 ft 6 kts 74°
2026-04-28 12:41 24.90662 67.17394 106 ft 6 kts 54°
2026-04-28 12:41 24.90694 67.17424 107 ft 6 kts 36°
2026-04-28 12:41 24.90717 67.17442 107 ft 6 kts 33°
2026-04-28 12:41 24.90732 67.17452 108 ft 0 kts 32°
2026-04-28 12:42 24.90781 67.17479 109 ft 14 kts 21°
2026-04-28 12:42 24.90862 67.17473 110 ft 7 kts 309°
2026-04-28 12:42 24.90862 67.17432 110 ft 0 kts 258°
2026-04-28 12:44 24.90839 67.17346 111 ft 30 kts 251°
2026-04-28 12:44 24.90770 67.17068 110 ft 85 kts 254°
2026-04-28 12:44 24.90446 67.15751 199 ft 171 kts 253°
2026-04-28 12:45 24.90217 67.14904 715 ft 177 kts 248°
2026-04-28 12:45 24.89608 67.13185 2058 ft 173 kts 259°
2026-04-28 12:45 24.89647 67.12285 2493 ft 189 kts 286°
2026-04-28 12:45 24.90555 67.11090 2776 ft 229 kts 327°
2026-04-28 12:46 24.92758 67.10933 3534 ft 257 kts 11°
2026-04-28 12:46 24.94396 67.11812 4266 ft 267 kts 34°
2026-04-28 12:46 24.95686 67.13314 5007 ft 272 kts 51°
2026-04-28 12:46 24.96417 67.14436 5593 ft 271 kts 52°
2026-04-28 12:47 24.97471 67.16137 6291 ft 269 kts 53°
2026-04-28 12:47 24.98908 67.18438 6710 ft 276 kts 52°
2026-04-28 12:47 24.99649 67.19599 6695 ft 281 kts 52°
2026-04-28 12:47 25.01167 67.21941 6695 ft 282 kts 51°
2026-04-28 12:48 25.01930 67.23103 6691 ft 283 kts 51°
2026-04-28 12:48 25.03461 67.25417 6697 ft 281 kts 51°
2026-04-28 12:48 25.04230 67.26574 6699 ft 283 kts 50°
2026-04-28 12:48 25.05393 67.28317 6694 ft 281 kts 51°
2026-04-28 12:49 25.06552 67.30050 6689 ft 281 kts 50°
2026-04-28 12:49 25.07703 67.31772 6683 ft 280 kts 51°
2026-04-28 12:49 25.08857 67.33498 6682 ft 277 kts 51°
2026-04-28 12:49 25.10000 67.35207 6683 ft 276 kts 50°
2026-04-28 12:50 25.11273 67.36791 6702 ft 284 kts 39°
2026-04-28 12:50 25.12816 67.38228 6696 ft 291 kts 35°
2026-04-28 12:50 25.14901 67.40072 6775 ft 293 kts 35°
2026-04-28 12:50 25.15978 67.41032 7219 ft 296 kts 36°
2026-04-28 12:51 25.17563 67.42465 7909 ft 300 kts 36°
2026-04-28 12:51 25.19184 67.43952 8600 ft 304 kts 36°
2026-04-28 12:51 25.20808 67.45454 9291 ft 307 kts 36°
2026-04-28 12:51 25.22459 67.46984 9936 ft 312 kts 36°
2026-04-28 12:52 25.24177 67.48564 10148 ft 332 kts 36°
2026-04-28 12:52 25.26025 67.50244 10311 ft 355 kts 36°
2026-04-28 12:52 25.27982 67.52022 10679 ft 372 kts 36°
2026-04-28 12:52 25.30002 67.53862 11336 ft 381 kts 37°
2026-04-28 12:53 25.32033 67.55716 12170 ft 386 kts 37°
2026-04-28 12:53 25.34107 67.57614 13102 ft 389 kts 37°
2026-04-28 12:53 25.36206 67.59535 13929 ft 395 kts 37°
2026-04-28 12:53 25.38331 67.61482 14732 ft 399 kts 37°
2026-04-28 12:54 25.40476 67.63445 15585 ft 401 kts 37°
2026-04-28 12:54 25.42637 67.65426 16407 ft 405 kts 36°
2026-04-28 12:54 25.44818 67.67425 17206 ft 409 kts 36°
2026-04-28 12:54 25.47022 67.69445 17994 ft 413 kts 36°
2026-04-28 12:55 25.49247 67.71484 18647 ft 417 kts 36°
2026-04-28 12:55 25.51461 67.73515 19280 ft 421 kts 36°
2026-04-28 12:55 25.53727 67.75594 19919 ft 425 kts 36°
2026-04-28 12:55 25.56014 67.77694 20569 ft 429 kts 35°
2026-04-28 12:56 25.58318 67.79813 21185 ft 432 kts 35°
2026-04-28 12:56 25.60645 67.81953 21784 ft 436 kts 35°
2026-04-28 12:56 25.62989 67.84108 22381 ft 440 kts 35°
2026-04-28 12:56 25.65346 67.86275 22960 ft 443 kts 34°
2026-04-28 12:57 25.67734 67.88474 23475 ft 447 kts 34°
2026-04-28 12:57 25.70104 67.90657 23967 ft 451 kts 34°
2026-04-28 12:57 25.72525 67.92889 24446 ft 454 kts 34°
2026-04-28 12:57 25.74966 67.95140 24916 ft 459 kts 34°
2026-04-28 12:58 25.77430 67.97414 25369 ft 462 kts 35°
2026-04-28 12:58 25.79909 67.99703 25850 ft 466 kts 35°
2026-04-28 12:58 25.82411 68.02015 26335 ft 469 kts 35°
2026-04-28 12:58 25.84928 68.04343 26814 ft 473 kts 35°
2026-04-28 12:59 25.87460 68.06686 27284 ft 476 kts 35°
2026-04-28 12:59 25.90019 68.09053 27729 ft 480 kts 35°
2026-04-28 12:59 25.92554 68.11401 28174 ft 484 kts 35°
2026-04-28 12:59 25.95152 68.13808 28637 ft 487 kts 35°
2026-04-28 13:00 25.97756 68.16224 29098 ft 490 kts 35°
2026-04-28 13:00 26.00382 68.18660 29549 ft 493 kts 35°
2026-04-28 13:00 26.03023 68.21112 29940 ft 496 kts 35°
2026-04-28 13:00 26.05677 68.23578 30345 ft 497 kts 35°
2026-04-28 13:01 26.08332 68.26047 30765 ft 499 kts 35°
2026-04-28 13:01 26.10994 68.28524 31130 ft 500 kts 35°
2026-04-28 13:01 26.13670 68.31015 31488 ft 502 kts 35°
2026-04-28 13:01 26.16354 68.33514 31795 ft 504 kts 35°
2026-04-28 13:02 26.19005 68.35982 32085 ft 505 kts 34°
2026-04-28 13:02 26.21785 68.38364 32421 ft 502 kts 30°
2026-04-28 13:02 26.24724 68.40432 32851 ft 496 kts 24°
2026-04-28 13:02 26.27747 68.42231 33335 ft 492 kts 22°
2026-04-28 13:03 26.30772 68.43989 33775 ft 489 kts 22°
2026-04-28 13:03 26.33784 68.45739 34133 ft 488 kts 22°
2026-04-28 13:03 26.36793 68.47500 34446 ft 488 kts 22°
2026-04-28 13:03 26.39753 68.49250 34784 ft 488 kts 22°
2026-04-28 13:04 26.42747 68.51032 35125 ft 487 kts 22°
2026-04-28 13:04 26.45728 68.52814 35483 ft 486 kts 22°
2026-04-28 13:04 26.48708 68.54599 35834 ft 485 kts 21°
2026-04-28 13:04 26.51676 68.56376 36164 ft 484 kts 22°
2026-04-28 13:05 26.54643 68.58152 36490 ft 484 kts 21°
2026-04-28 13:05 26.57612 68.59930 36804 ft 484 kts 21°
2026-04-28 13:05 26.60576 68.61706 37127 ft 483 kts 21°
2026-04-28 13:05 26.63493 68.63454 37452 ft 482 kts 21°
2026-04-28 13:06 26.66451 68.65222 37774 ft 481 kts 21°
2026-04-28 13:06 26.69404 68.66983 38095 ft 480 kts 21°
2026-04-28 13:06 26.72349 68.68737 38404 ft 479 kts 20°
2026-04-28 13:06 26.75286 68.70488 38653 ft 478 kts 21°
2026-04-28 13:07 26.78223 68.72240 38891 ft 478 kts 21°
2026-04-28 13:07 26.81157 68.73992 39113 ft 478 kts 21°
2026-04-28 13:07 26.84088 68.75743 39363 ft 477 kts 21°
2026-04-28 13:07 26.87014 68.77494 39611 ft 476 kts 21°
2026-04-28 13:08 26.89928 68.79240 39860 ft 475 kts 21°
2026-04-28 13:08 26.92802 68.80961 40088 ft 474 kts 21°
2026-04-28 13:08 26.95715 68.82707 40302 ft 474 kts 21°
2026-04-28 13:08 26.98625 68.84451 40495 ft 474 kts 21°
2026-04-28 13:09 27.01540 68.86199 40543 ft 477 kts 21°
2026-04-28 13:09 27.07416 68.89726 40597 ft 479 kts 21°
2026-04-28 13:10 27.13241 68.93234 40598 ft 472 kts 21°
2026-04-28 13:10 27.18984 68.96693 40604 ft 470 kts 21°
2026-04-28 13:11 27.24746 69.00163 40610 ft 470 kts 21°
2026-04-28 13:11 27.30509 69.03640 40615 ft 470 kts 21°
2026-04-28 13:12 27.36272 69.07122 40610 ft 471 kts 21°
2026-04-28 13:12 27.42013 69.10593 40614 ft 472 kts 21°
2026-04-28 13:13 27.47802 69.14091 40614 ft 473 kts 21°
2026-04-28 13:13 27.53618 69.17609 40617 ft 475 kts 21°
2026-04-28 13:14 27.59437 69.21135 40619 ft 476 kts 21°
2026-04-28 13:14 27.65229 69.24650 40620 ft 476 kts 21°
2026-04-28 13:15 27.71067 69.28197 40616 ft 476 kts 21°
2026-04-28 13:15 27.76903 69.31748 40615 ft 477 kts 21°
2026-04-28 13:16 27.82743 69.35304 40616 ft 476 kts 21°
2026-04-28 13:16 27.88573 69.38859 40617 ft 476 kts 21°
2026-04-28 13:17 27.94361 69.42392 40611 ft 476 kts 21°
2026-04-28 13:17 28.00190 69.45955 40617 ft 476 kts 21°
2026-04-28 13:18 28.06009 69.49517 40613 ft 476 kts 21°
2026-04-28 13:18 28.11828 69.53083 40612 ft 475 kts 21°
2026-04-28 13:19 28.17644 69.56651 40614 ft 475 kts 21°
2026-04-28 13:19 28.23423 69.60201 40614 ft 476 kts 21°
2026-04-28 13:20 28.29240 69.63779 40615 ft 476 kts 21°
2026-04-28 13:20 28.35057 69.67361 40615 ft 476 kts 21°
2026-04-28 13:21 28.40840 69.70928 40615 ft 476 kts 21°
2026-04-28 13:21 28.46661 69.74522 40616 ft 476 kts 21°
2026-04-28 13:22 28.52483 69.78121 40616 ft 477 kts 21°
2026-04-28 13:22 28.58325 69.81691 40618 ft 476 kts 20°
2026-04-28 13:23 28.64187 69.85203 40620 ft 476 kts 20°
2026-04-28 13:23 28.70006 69.88690 40619 ft 476 kts 20°
2026-04-28 13:24 28.75866 69.92218 40624 ft 477 kts 20°
2026-04-28 13:24 28.81734 69.95762 40625 ft 477 kts 20°
2026-04-28 13:25 28.87602 69.99311 40622 ft 477 kts 20°
2026-04-28 13:25 28.93466 70.02862 40623 ft 477 kts 20°
2026-04-28 13:26 28.99294 70.06396 40623 ft 478 kts 20°
2026-04-28 13:26 29.05165 70.09959 40620 ft 478 kts 20°
2026-04-28 13:27 29.11034 70.13527 40619 ft 478 kts 20°
2026-04-28 13:27 29.16865 70.17076 40618 ft 478 kts 20°
2026-04-28 13:28 29.22736 70.20654 40615 ft 478 kts 20°
2026-04-28 13:28 29.28608 70.24237 40613 ft 478 kts 20°
2026-04-28 13:29 29.34470 70.27818 40610 ft 478 kts 20°
2026-04-28 13:29 29.40298 70.31384 40612 ft 478 kts 20°
2026-04-28 13:30 29.46157 70.34974 40607 ft 477 kts 20°
2026-04-28 13:30 29.52013 70.38566 40604 ft 477 kts 20°
2026-04-28 13:31 29.60794 70.43961 40613 ft 477 kts 20°
2026-04-28 13:31 29.66653 70.47567 40610 ft 477 kts 20°
2026-04-28 13:32 29.72470 70.51152 40606 ft 478 kts 20°
2026-04-28 13:32 29.78328 70.54767 40600 ft 478 kts 20°
2026-04-28 13:33 29.84180 70.58383 40602 ft 478 kts 20°
2026-04-28 13:33 29.90042 70.62010 40605 ft 478 kts 21°
2026-04-28 13:34 29.95901 70.65640 40603 ft 478 kts 21°
2026-04-28 13:34 30.01720 70.69251 40602 ft 478 kts 21°
2026-04-28 13:35 30.07580 70.72892 40600 ft 478 kts 21°
2026-04-28 13:35 30.13436 70.76536 40599 ft 478 kts 21°
2026-04-28 13:36 30.19295 70.80187 40600 ft 478 kts 21°
2026-04-28 13:36 30.25131 70.83758 40596 ft 477 kts 19°
2026-04-28 13:37 30.31088 70.87092 40592 ft 475 kts 18°
2026-04-28 13:37 30.37060 70.90389 40593 ft 476 kts 18°
2026-04-28 13:38 30.43018 70.93724 40599 ft 476 kts 18°
2026-04-28 13:38 30.48967 70.97086 40585 ft 476 kts 18°
2026-04-28 13:39 30.54865 71.00428 40585 ft 476 kts 18°
2026-04-28 13:39 30.60819 71.03805 40584 ft 476 kts 18°
2026-04-28 13:40 30.66771 71.07183 40586 ft 476 kts 18°
2026-04-28 13:40 30.72718 71.10564 40586 ft 476 kts 18°
2026-04-28 13:41 30.78664 71.13948 40591 ft 476 kts 18°
2026-04-28 13:41 30.84570 71.17315 40589 ft 476 kts 18°
2026-04-28 13:42 30.90513 71.20707 40589 ft 476 kts 18°
2026-04-28 13:42 30.96457 71.24105 40593 ft 476 kts 18°
2026-04-28 13:43 31.02402 71.27508 40598 ft 476 kts 19°
2026-04-28 13:43 31.08306 71.30892 40598 ft 476 kts 19°
2026-04-28 13:44 31.14250 71.34303 40602 ft 476 kts 19°
2026-04-28 13:44 31.20198 71.37723 40606 ft 476 kts 19°
2026-04-28 13:45 31.26141 71.41145 40611 ft 477 kts 19°
2026-04-28 13:45 31.32095 71.44579 40617 ft 477 kts 19°
2026-04-28 13:46 31.38016 71.47998 40621 ft 478 kts 19°
2026-04-28 13:46 31.43977 71.51446 40625 ft 478 kts 19°
2026-04-28 13:47 31.49943 71.54901 40631 ft 479 kts 19°
2026-04-28 13:47 31.55916 71.58366 40637 ft 479 kts 19°
2026-04-28 13:48 31.61902 71.61842 40641 ft 480 kts 19°
2026-04-28 13:48 31.67846 71.65301 40651 ft 481 kts 19°
2026-04-28 13:49 31.73842 71.68798 40654 ft 481 kts 19°
2026-04-28 13:49 31.79807 71.72284 40269 ft 478 kts 19°
2026-04-28 13:50 31.82803 71.74034 39793 ft 482 kts 19°
2026-04-28 13:50 31.85809 71.75790 39338 ft 484 kts 19°
2026-04-28 13:50 31.88825 71.77554 38944 ft 485 kts 19°
2026-04-28 13:50 31.91809 71.79303 38556 ft 485 kts 19°
2026-04-28 13:51 31.94825 71.81072 38081 ft 486 kts 20°
2026-04-28 13:51 31.97852 71.82847 37481 ft 487 kts 20°
2026-04-28 13:51 32.00900 71.84634 36834 ft 490 kts 21°
2026-04-28 13:51 32.03960 71.86431 36189 ft 492 kts 22°
2026-04-28 13:52 32.07029 71.88235 35544 ft 494 kts 23°
2026-04-28 13:52 32.10105 71.90046 34898 ft 495 kts 24°
2026-04-28 13:52 32.13194 71.91866 34238 ft 497 kts 24°
2026-04-28 13:52 32.16250 71.93669 33494 ft 499 kts 25°
2026-04-28 13:53 32.19363 71.95507 32577 ft 502 kts 25°
2026-04-28 13:53 32.22496 71.97359 31643 ft 505 kts 25°
2026-04-28 13:53 32.25653 71.99225 30708 ft 508 kts 25°
2026-04-28 13:53 32.28809 72.01091 30001 ft 506 kts 25°
2026-04-28 13:54 32.31942 72.02946 29382 ft 501 kts 25°
2026-04-28 13:54 32.35039 72.04781 28807 ft 494 kts 25°
2026-04-28 13:54 32.38099 72.06595 28227 ft 489 kts 25°
2026-04-28 13:54 32.41127 72.08389 28224 ft 487 kts 26°
2026-04-28 13:55 32.44139 72.10176 27330 ft 482 kts 26°
2026-04-28 13:55 32.47034 72.12032 26557 ft 475 kts 31°
2026-04-28 13:55 32.49748 72.14207 25828 ft 468 kts 36°
2026-04-28 13:55 32.52343 72.16491 25099 ft 461 kts 37°
2026-04-28 13:56 32.54891 72.18755 24392 ft 455 kts 37°
2026-04-28 13:56 32.57405 72.20987 23694 ft 449 kts 37°
2026-04-28 13:56 32.59890 72.23183 23003 ft 443 kts 37°
2026-04-28 13:56 32.62351 72.25348 22324 ft 438 kts 36°
2026-04-28 13:57 32.64788 72.27485 21658 ft 433 kts 36°
2026-04-28 13:57 32.67198 72.29595 20990 ft 428 kts 36°
2026-04-28 13:57 32.69549 72.31654 20347 ft 424 kts 36°
2026-04-28 13:57 32.71909 72.33722 19709 ft 419 kts 36°
2026-04-28 13:58 32.74244 72.35769 19062 ft 415 kts 36°
2026-04-28 13:58 32.76554 72.37796 18463 ft 411 kts 36°
2026-04-28 13:58 32.78846 72.39808 17846 ft 407 kts 36°
2026-04-28 13:58 32.81109 72.41797 17232 ft 403 kts 36°
2026-04-28 13:59 32.83357 72.43774 16649 ft 400 kts 36°
2026-04-28 13:59 32.85583 72.45733 16063 ft 396 kts 36°
2026-04-28 13:59 32.87758 72.47648 15488 ft 393 kts 36°
2026-04-28 13:59 32.89944 72.49575 14910 ft 389 kts 36°
2026-04-28 14:00 32.92111 72.51485 14366 ft 385 kts 36°
2026-04-28 14:00 32.94233 72.53358 14121 ft 373 kts 36°
2026-04-28 14:00 32.96216 72.55109 13667 ft 341 kts 36°
2026-04-28 14:00 32.98053 72.56732 13084 ft 318 kts 36°
2026-04-28 14:01 32.99788 72.58264 12360 ft 305 kts 36°
2026-04-28 14:01 33.01469 72.59750 11521 ft 298 kts 36°
2026-04-28 14:01 33.03140 72.61219 10710 ft 301 kts 34°
2026-04-28 14:01 33.05025 72.62268 10269 ft 299 kts 14°
2026-04-28 14:02 33.07035 72.62561 9970 ft 294 kts 358°
2026-04-28 14:02 33.09053 72.62361 9711 ft 288 kts 353°
2026-04-28 14:02 33.11020 72.62095 9514 ft 281 kts 353°
2026-04-28 14:02 33.12952 72.61830 9251 ft 277 kts 353°
2026-04-28 14:03 33.14865 72.61575 8946 ft 276 kts 353°
2026-04-28 14:03 33.16764 72.61330 8735 ft 271 kts 353°
2026-04-28 14:03 33.18615 72.61098 8554 ft 265 kts 353°
2026-04-28 14:03 33.20414 72.60877 8307 ft 262 kts 354°
2026-04-28 14:04 33.22227 72.60657 8014 ft 262 kts 354°
2026-04-28 14:04 33.24037 72.60439 7479 ft 261 kts 354°
2026-04-28 14:04 33.25848 72.60222 7162 ft 262 kts 353°
2026-04-28 14:04 33.27643 72.60008 6996 ft 256 kts 353°
2026-04-28 14:05 33.29406 72.59797 6750 ft 254 kts 354°
2026-04-28 14:05 33.31159 72.59589 6511 ft 252 kts 354°
2026-04-28 14:05 33.32903 72.59381 6238 ft 253 kts 354°
2026-04-28 14:05 33.34654 72.59174 5938 ft 253 kts 355°
2026-04-28 14:06 33.36394 72.58967 5695 ft 251 kts 355°
2026-04-28 14:06 33.38118 72.58764 5407 ft 253 kts 355°
2026-04-28 14:06 33.39859 72.58555 5166 ft 251 kts 356°
2026-04-28 14:06 33.41576 72.58353 5069 ft 244 kts 356°
2026-04-28 14:07 33.43254 72.58153 5025 ft 243 kts 356°
2026-04-28 14:07 33.44941 72.57955 4996 ft 243 kts 356°
2026-04-28 14:07 33.46642 72.57751 5008 ft 247 kts 356°
2026-04-28 14:07 33.48356 72.57548 5000 ft 248 kts 358°
2026-04-28 14:08 33.50040 72.57702 4978 ft 241 kts 20°
2026-04-28 14:08 33.51622 72.58333 5002 ft 237 kts 20°
2026-04-28 14:08 33.53152 72.58910 4969 ft 233 kts 21°
2026-04-28 14:08 33.54674 72.59474 4937 ft 225 kts 20°
2026-04-28 14:09 33.56144 72.60030 4909 ft 218 kts 26°
2026-04-28 14:09 33.57270 72.61089 4870 ft 199 kts 62°
2026-04-28 14:09 33.57603 72.62632 4722 ft 191 kts 93°
2026-04-28 14:09 33.57527 72.64192 4492 ft 184 kts 95°
2026-04-28 14:10 33.57411 72.65680 4243 ft 175 kts 99°
2026-04-28 14:10 33.57222 72.67071 4015 ft 167 kts 101°
2026-04-28 14:10 33.57020 72.68375 3818 ft 150 kts 101°
2026-04-28 14:10 33.56839 72.69544 3769 ft 140 kts 102°
2026-04-28 14:11 33.56665 72.70655 3729 ft 135 kts 101°
2026-04-28 14:11 33.56492 72.71762 3718 ft 134 kts 101°
2026-04-28 14:11 33.56322 72.72852 3705 ft 133 kts 102°
2026-04-28 14:11 33.56152 72.73935 3703 ft 130 kts 102°
2026-04-28 14:12 33.55986 72.75012 3705 ft 132 kts 102°
2026-04-28 14:12 33.55813 72.76112 3710 ft 137 kts 101°
2026-04-28 14:12 33.55642 72.77221 3696 ft 135 kts 103°
2026-04-28 14:12 33.55466 72.78339 3603 ft 136 kts 102°
2026-04-28 14:13 33.55301 72.79425 3627 ft 140 kts 102°
2026-04-28 14:13 33.55111 72.80695 3661 ft 170 kts 102°
2026-04-28 14:13 33.54880 72.82222 3671 ft 201 kts 101°
2026-04-28 14:13 33.54618 72.83948 3661 ft 217 kts 102°
2026-04-28 14:14 33.54339 72.85744 3655 ft 225 kts 102°
2026-04-28 14:14 33.54044 72.87615 3656 ft 228 kts 102°
2026-04-28 14:14 33.53694 72.89431 3647 ft 227 kts 114°
2026-04-28 14:14 33.52722 72.90906 3658 ft 227 kts 147°
2026-04-28 14:15 33.51239 72.91504 3657 ft 227 kts 178°
2026-04-28 14:15 33.49663 72.91391 3666 ft 228 kts 186°
2026-04-28 14:15 33.48093 72.91148 3658 ft 227 kts 187°
2026-04-28 14:15 33.46521 72.90891 3653 ft 228 kts 187°
2026-04-28 14:16 33.44982 72.90634 3796 ft 222 kts 187°
2026-04-28 14:16 33.43418 72.90357 4060 ft 229 kts 188°
2026-04-28 14:16 33.41880 72.90072 4291 ft 228 kts 187°
2026-04-28 14:16 33.40346 72.89778 4535 ft 219 kts 186°
2026-04-28 14:17 33.38767 72.89965 4519 ft 248 kts 153°
2026-04-28 14:17 33.37461 72.91383 4507 ft 260 kts 120°
2026-04-28 14:17 33.37097 72.93450 4501 ft 259 kts 84°
2026-04-28 14:17 33.37798 72.95477 4519 ft 272 kts 58°
2026-04-28 14:18 33.38862 72.97401 4515 ft 280 kts 61°
2026-04-28 14:18 33.39728 72.99457 4503 ft 272 kts 69°
2026-04-28 14:18 33.40336 73.01505 4469 ft 257 kts 73°
2026-04-28 14:18 33.41186 73.03301 4411 ft 240 kts 40°
2026-04-28 14:19 33.42632 73.04034 4403 ft 232 kts
2026-04-28 14:19 33.44235 73.04058 4422 ft 229 kts
2026-04-28 14:19 33.45820 73.04105 4375 ft 228 kts
2026-04-28 14:19 33.47408 73.04148 4146 ft 228 kts
2026-04-28 14:20 33.48947 73.04012 3947 ft 217 kts 340°
2026-04-28 14:20 33.50233 73.03175 3804 ft 205 kts 318°
2026-04-28 14:20 33.51310 73.02169 3718 ft 188 kts 319°
2026-04-28 14:20 33.52013 73.00977 3705 ft 174 kts 281°
2026-04-28 14:21 33.52154 72.99604 3685 ft 159 kts 278°
2026-04-28 14:21 33.52350 72.98308 3694 ft 159 kts 279°
2026-04-28 14:21 33.52555 72.97004 3708 ft 160 kts 279°
2026-04-28 14:21 33.52762 72.95675 3547 ft 163 kts 279°
2026-04-28 14:22 33.52966 72.94369 3361 ft 157 kts 279°
2026-04-28 14:22 33.53161 72.93122 3143 ft 146 kts 279°
2026-04-28 14:22 33.53339 72.91975 2966 ft 137 kts 279°
2026-04-28 14:22 33.53514 72.90852 2800 ft 140 kts 279°
2026-04-28 14:23 33.53694 72.89707 2619 ft 139 kts 278°
2026-04-28 14:23 33.53870 72.88580 2461 ft 136 kts 279°
2026-04-28 14:23 33.54015 72.87450 2299 ft 137 kts 272°
2026-04-28 14:23 33.54187 72.86338 2104 ft 135 kts 275°
2026-04-28 14:24 33.54384 72.85226 1906 ft 134 kts 276°
2026-04-28 14:24 33.54565 72.84159 1784 ft 129 kts 276°
2026-04-28 14:24 33.54693 72.83212 1772 ft 99 kts 277°
2026-04-28 14:24 33.54814 72.82651 1765 ft 52 kts 303°
2026-04-28 14:25 33.54924 72.82471 1769 ft 19 kts 310°
2026-04-28 14:25 33.55045 72.82443 1767 ft 19 kts
2026-04-28 14:25 33.55149 72.82464 1773 ft 0 kts 10°
2026-04-28 14:27 33.55193 72.82495 1775 ft 12 kts 56°
2026-04-28 14:27 33.55193 72.82594 1776 ft 12 kts 100°
2026-04-28 14:28 33.55180 72.82693 1776 ft 12 kts 98°
2026-04-28 14:28 33.55167 72.82792 1776 ft 12 kts 101°
2026-04-28 14:28 33.55151 72.82890 1776 ft 12 kts 97°
2026-04-28 14:28 33.55175 72.82985 1775 ft 12 kts 51°
2026-04-28 14:29 33.55226 72.83064 1776 ft 12 kts 54°
2026-04-28 14:29 33.55273 72.83148 1776 ft 12 kts 56°
2026-04-28 14:29 33.55320 72.83232 1778 ft 12 kts 54°
2026-04-28 14:29 33.55396 72.83261 1776 ft 12 kts 357°
2026-04-28 14:30 33.55439 72.83258 1776 ft 1 kts 357°
2026-04-28 14:30 33.55445 72.83258 1777 ft 1 kts 357°
2026-04-28 14:30 33.55447 72.83258 1776 ft 0 kts 357°